Location: Marsån
(66.4167°N, 22.2833°E)
Time: 07:52:11
(UTC+00:00)

Lacrosse 4 Rocket - Pass Details

Date: 24 February 2024
Orbit: 532 x 593 km, 68.0° (Epoch: 20 April)

Event Time Altitude Azimuth Distance (km) Brightness Sun altitude
Rises 20:07:31 0° 302° (WNW) 2,733 6.1 -27.1°
Reaches altitude 10° 20:10:36 10° 278° (W) 1,821 4.6 -27.3°
Enters shadow 20:12:40 14° 247° (WSW) 1,569 3.8 -27.5°
